Location: Seattle
(47.6064°N, 122.3308°W)
Time: 12:01:11
(UTC-07:00)

Explorer 7 - Pass Details

Date: 09 August 2021
Orbit: 484 x 676 km, 50.3° (Epoch: 22 September)

Event Time Altitude Azimuth Distance (km) Brightness Sun altitude
Exits shadow 05:09:47 - 269° (W) 1,935 9.1 -7.9°
Reaches altitude 10° 05:10:27 10° 270° (W) 1,670 8.8 -7.8°
Maximum altitude 05:14:10 60° 352° (N) 567 7.0 -7.3°
Drops below altitude 10° 05:18:00 10° 73° (ENE) 1,723 10.9 -6.7°
Sets 05:20:17 0° 77° (ENE) 2,636 11.9 -6.4°
